Location: Canet
(43.3261°N, 5.3723°E)
Time: 03:23:49
(UTC+00:00)

X-37B - Pass Details

Date: 21 September 2021
Orbit: 342 x 346 km, 45.0° (Epoch: 22 October)

Event Time Altitude Azimuth Distance (km) Brightness Sun altitude
Exits shadow 02:57:01 - 127° (SE) 2,067 4.6 -26.5°
Enters shadow 03:52:43 -72° 250° (WSW) 12,458 8.2 -17.3°
Maximum altitude 04:31:15 20° 148° (SSE) 876 2.6 -10.5°
